Вернуться в каталог

NOAA 16 DEB

АктивенPO
NORAD 41348·DEBRIS·🇺🇸 United States

Запущен Sep 21, 2000 с Vandenberg Space Force Base

Loading…

Ближайшие Пролёты (ближайшие 24 часа)

TLE

СвежийSource: Space-Track

Эпоха: Sep 13, 2026, 04:20 UTC

1 41348U 00055HR  26256.18101692  .00037677  00000-0  38347-2 0  9996
2 41348  98.7815  44.0862 0012770 119.9045 240.3440 14.90558625552947

Отслеживайте NOAA 16 DEB в реальном времени с AllMySat

Download on the App Store